Edinburg, TX

3:06 AM CDT on May 27, 2017 (GMT -0500)
Edinburg

Weather History for KEBG - January, 2013

Change the Weather History Date:

Thursday, January 24, 2013

  Actual Average (KMFE) Record (KMFE)
Temperature  
Mean Temperature 72 °F -  
Max Temperature 85 °F 71 °F 91 °F (1943)
Min Temperature 60 °F 51 °F 23 °F (1963)
Cooling Degree Days 8    
Growing Degree Days 22 (Base 50)    
Moisture  
Dew Point 61 °F    
Average Humidity 75    
Maximum Humidity 93    
Minimum Humidity 38    
Precipitation  
Precipitation 0.00 in - - ()
Sea Level Pressure  
Sea Level Pressure 30.22 in    
Wind  
Wind Speed 7 mph (SSE)    
Max Wind Speed 15 mph    
Max Gust Speed 20 mph    
Visibility 6 miles    
Events Rain    
Averages and records for this station are not official NWS values.
T = Trace of Precipitation, MM = Missing Value Source: NWS Daily Summary

Daily Weather History Graph

Daily Weather History Graph

Search for Another Location

Airport or City:

Trip Planner

Search our weather history database for the weather conditions in past years. The results will help you decide how hot, cold, wet, or windy it might be!

Date:

Astronomy

Jan. 24, 2013 Rise Set
Actual Time 7:20 AM CST 6:09 PM CST
Civil Twilight 6:55 AM CST 6:33 PM CST
Nautical Twilight 6:27 AM CST 7:01 PM CST
Astronomical Twilight 6:00 AM CST 7:29 PM CST
Moon 4:15 PM CST (1/24) 5:15 AM CST (1/24)
Length of Visible Light 11h 38m
Length of Day
10h 49m
Waxing Gibbous, 94% of the Moon is Illuminated
Jan 24
Waxing Gibbous
Jan 26
Full
Feb 3
Last Quarter
Feb 10
New
Feb 17
First Quarter

Hourly Weather History & Observations

Time (CST) Temp. Heat Index Dew Point Humidity Pressure Visibility Wind Dir Wind Speed Gust Speed Precip Events Conditions
12:15 AM 66.4 °F - 61.3 °F 84% 30.25 in 7.0 mi SSE 6.9 mph - N/A   Clear
12:35 AM 66.4 °F - 61.7 °F 85% 30.25 in 7.0 mi SSE 8.1 mph - N/A   Clear
12:55 AM 66.2 °F - 61.7 °F 85% 30.25 in 7.0 mi SSE 6.9 mph - N/A   Clear
1:15 AM 66.4 °F - 61.3 °F 84% 30.25 in 7.0 mi South 8.1 mph - N/A   Clear
1:35 AM 66.2 °F - 61.3 °F 84% 30.25 in 7.0 mi South 5.8 mph - N/A   Clear
1:55 AM 65.7 °F - 61.0 °F 85% 30.24 in 7.0 mi SSE 6.9 mph - N/A   Clear
2:15 AM 65.7 °F - 61.3 °F 86% 30.24 in 7.0 mi SSE 5.8 mph - N/A   Clear
2:35 AM 65.5 °F - 61.2 °F 86% 30.24 in 7.0 mi South 5.8 mph - N/A   Clear
2:55 AM 65.3 °F - 61.3 °F 87% 30.24 in 7.0 mi South 5.8 mph - N/A   Clear
3:15 AM 64.9 °F - 61.0 °F 87% 30.24 in 7.0 mi South 5.8 mph - N/A   Clear
3:35 AM 64.4 °F - 60.8 °F 88% 30.24 in 7.0 mi SSE 4.6 mph - N/A   Clear
3:55 AM 64.2 °F - 60.6 °F 88% 30.24 in 7.0 mi SSE 5.8 mph - N/A   Clear
4:15 AM 63.5 °F - 60.1 °F 89% 30.24 in 7.0 mi SSE 4.6 mph - N/A   Clear
4:35 AM 62.6 °F - 59.5 °F 90% 30.23 in 5.0 mi SSE 3.5 mph - N/A   Clear
4:55 AM 61.5 °F - 58.6 °F 90% 30.23 in 4.0 mi SSE 3.5 mph - N/A   Clear
5:15 AM 61.0 °F - 58.3 °F 91% 30.23 in 4.0 mi SSE 3.5 mph - N/A   Clear
5:35 AM 61.7 °F - 59.0 °F 91% 30.24 in 5.0 mi Calm Calm - N/A   Clear
5:55 AM 62.1 °F - 59.4 °F 91% 30.24 in 5.0 mi Calm Calm - N/A   Clear
6:15 AM 61.7 °F - 59.0 °F 91% 30.25 in 4.0 mi Calm Calm - N/A   Clear
6:35 AM 60.8 °F - 58.1 °F 91% 30.25 in 0.8 mi Calm Calm - N/A   Mist
6:55 AM 60.1 °F - 57.6 °F 91% 30.25 in 0.8 mi Calm Calm - N/A   Overcast
7:15 AM 60.3 °F - 58.1 °F 93% 30.24 in 2.0 mi Calm Calm - N/A   Overcast
7:35 AM 62.1 °F - 59.7 °F 92% 30.25 in 0.2 mi South 3.5 mph - N/A Rain Light Rain
7:55 AM 62.6 °F - 60.3 °F 92% 30.25 in 0.2 mi South 6.9 mph - N/A Rain Heavy Rain
8:15 AM 63.1 °F - 60.8 °F 92% 30.25 in 0.2 mi SSW 4.6 mph - N/A Rain Light Rain
8:35 AM 63.9 °F - 61.7 °F 93% 30.26 in 0.2 mi SSW 4.6 mph - N/A Rain Light Rain
8:55 AM 64.4 °F - 62.1 °F 92% 30.27 in 0.5 mi South 5.8 mph - N/A Rain Light Rain
9:15 AM 65.5 °F - 63.1 °F 92% 30.27 in 0.8 mi South 6.9 mph - N/A   Overcast
9:35 AM 66.4 °F - 64.0 °F 92% 30.28 in 2.5 mi SSW 8.1 mph - N/A   Overcast
9:55 AM 67.1 °F - 64.6 °F 92% 30.29 in 4.0 mi South 8.1 mph - N/A   Overcast
10:15 AM 69.1 °F - 66.0 °F 90% 30.29 in 5.0 mi South 10.4 mph - N/A   Mostly Cloudy
10:35 AM 70.7 °F - 64.0 °F 79% 30.30 in 5.0 mi South 11.5 mph - N/A   Haze
10:55 AM 72.5 °F - 64.4 °F 76% 30.29 in 7.0 mi South 12.7 mph 16.1 mph N/A   Mostly Cloudy
11:15 AM 73.6 °F - 63.9 °F 72% 30.28 in 7.0 mi South 10.4 mph - N/A   Mostly Cloudy
11:35 AM 75.7 °F - 63.7 °F 66% 30.27 in 7.0 mi SSE 10.4 mph - N/A   Scattered Clouds
11:55 AM 76.5 °F - 62.8 °F 62% 30.26 in 7.0 mi South 11.5 mph 17.3 mph N/A   Scattered Clouds
12:15 PM 78.6 °F - 63.0 °F 59% 30.25 in 7.0 mi SSE 10.4 mph 16.1 mph N/A   Clear
12:35 PM 78.8 °F - 63.0 °F 58% 30.24 in 7.0 mi South 11.5 mph - N/A   Scattered Clouds
12:55 PM 79.9 °F - 62.4 °F 55% 30.23 in 7.0 mi South 13.8 mph 18.4 mph N/A   Clear
1:15 PM 81.3 °F 82.3 °F 62.1 °F 52% 30.21 in 7.0 mi South 11.5 mph 18.4 mph N/A   Clear
1:35 PM 81.7 °F 82.3 °F 60.6 °F 49% 30.20 in 5.0 mi SSE 10.4 mph 17.3 mph N/A   Haze
1:55 PM 82.4 °F 82.6 °F 59.9 °F 46% 30.19 in 7.0 mi South 11.5 mph 19.6 mph N/A   Clear
2:15 PM 82.9 °F 83.2 °F 59.9 °F 46% 30.17 in 7.0 mi South 12.7 mph 19.6 mph N/A   Clear
2:35 PM 83.7 °F 83.4 °F 59.0 °F 43% 30.15 in 7.0 mi SSE 12.7 mph 19.6 mph N/A   Clear
2:55 PM 84.4 °F 83.7 °F 57.4 °F 40% 30.15 in 7.0 mi South 15.0 mph - N/A   Clear
3:15 PM 84.6 °F 83.7 °F 57.2 °F 39% 30.14 in 5.0 mi SE 10.4 mph 17.3 mph N/A   Haze
3:35 PM 85.1 °F 84.3 °F 57.4 °F 39% 30.14 in 7.0 mi SE 11.5 mph 16.1 mph N/A   Clear
3:55 PM 85.5 °F 84.5 °F 56.8 °F 38% 30.13 in 7.0 mi SSE 12.7 mph - N/A   Clear
5:15 PM 82.4 °F 82.9 °F 60.8 °F 48% 30.13 in 7.0 mi SSE 15.0 mph 19.6 mph N/A   Clear
5:35 PM 81.1 °F 82.0 °F 61.3 °F 51% 30.13 in 7.0 mi SSE 13.8 mph - N/A   Clear
5:55 PM 79.7 °F - 61.2 °F 53% 30.13 in 7.0 mi SSE 13.8 mph - N/A   Clear
6:15 PM 77.9 °F - 61.0 °F 56% 30.14 in 7.0 mi SSE 12.7 mph - N/A   Clear
6:35 PM 76.5 °F - 61.3 °F 59% 30.15 in 10.0 mi SSE 12.7 mph 19.6 mph N/A   Clear
6:55 PM 75.2 °F - 61.7 °F 63% 30.15 in 7.0 mi SSE 11.5 mph 16.1 mph N/A   Clear
7:15 PM 74.5 °F - 61.9 °F 65% 30.16 in 10.0 mi SSE 12.7 mph 17.3 mph N/A   Clear
7:35 PM 73.8 °F - 62.2 °F 67% 30.17 in 7.0 mi SSE 11.5 mph 18.4 mph N/A   Clear
7:55 PM 72.5 °F - 62.6 °F 71% 30.18 in 10.0 mi SSE 9.2 mph - N/A   Clear
8:15 PM 71.6 °F - 62.8 °F 74% 30.18 in 10.0 mi SSE 8.1 mph - N/A   Clear
8:35 PM 70.7 °F - 63.0 °F 76% 30.19 in 7.0 mi SSE 8.1 mph - N/A   Clear
8:55 PM 70.2 °F - 63.1 °F 78% 30.19 in 7.0 mi SSE 9.2 mph - N/A   Clear
9:15 PM 69.3 °F - 63.0 °F 80% 30.19 in 7.0 mi SE 6.9 mph - N/A   Clear
9:35 PM 68.5 °F - 62.8 °F 82% 30.19 in 7.0 mi SE 6.9 mph - N/A   Clear
9:55 PM 68.0 °F - 62.6 °F 83% 30.19 in 7.0 mi SE 6.9 mph - N/A   Clear
10:15 PM 67.5 °F - 62.6 °F 84% 30.19 in 7.0 mi SSE 6.9 mph - N/A   Clear
10:35 PM 67.3 °F - 62.6 °F 85% 30.20 in 7.0 mi SSE 6.9 mph - N/A   Clear
10:55 PM 66.9 °F - 62.4 °F 85% 30.19 in 7.0 mi SSE 6.9 mph - N/A   Clear
11:15 PM 67.1 °F - 62.6 °F 85% 30.18 in 5.0 mi SSE 8.1 mph - N/A   Clear
11:35 PM 67.1 °F - 62.8 °F 86% 30.18 in 7.0 mi SSE 8.1 mph - N/A   Clear
11:55 PM 66.9 °F - 62.6 °F 86% 30.18 in 7.0 mi South 6.9 mph - N/A   Clear